{"data":{"norad_id":66028,"epoch":"2026-09-20T05:16:30.160992Z","epoch_age_seconds":127309,"freshness":"FRESH","line1":"1 66028U 25232Z   26263.21979353  .00010693  00000+0  32730-3 0  9990","line2":"2 66028  53.1588 277.1606 0001035  36.8970 323.2103 15.34385534 53266","mean_motion":15.34385534,"eccentricity":0.0001035,"inclination_deg":53.1588,"raan_deg":277.1606,"arg_perigee_deg":36.897,"mean_anomaly_deg":323.2103,"bstar":0.0003273,"rev_number":5326,"period_min":93.848642866572,"perigee_km":462.0382051305,"apogee_km":463.45426796046,"semimajor_km":6840.8832365455,"source":"CELESTRAK","updated_at":"2026-09-21T09:00:35.773003Z"}}